AFL1200 UUEE-USPP

Flight info

Callsign AFL1200
Flight time 1h 35m
Altitude 35000
Route OLMUN3J OLMUN T629 IPSIL T830 LAMGU N604 OGSIN P983 SUMOM SUMOM1F
Aircraft A320/M-SDE3FGHIRWY/LB1

Departure

Time 2026-04-26 18:07
Airport Sheremetyevo International Airport (UUEE)

Arrival

Time 2026-04-26 19:42
Airport Perm International Airport (USPP)
Time Latitude Longitude Altitude Speed Heading
2026-04-26 17:31 55.98110 37.42116 639 ft 0 kts 75°
2026-04-26 17:57 55.98112 37.42167 639 ft 6 kts 97°
2026-04-26 17:57 55.98089 37.42218 639 ft 5 kts 149°
2026-04-26 17:58 55.97865 37.42334 641 ft 11 kts 163°
2026-04-26 17:59 55.97739 37.42405 639 ft 8 kts 144°
2026-04-26 17:59 55.97731 37.42484 639 ft 6 kts 84°
2026-04-26 17:59 55.97748 37.42600 647 ft 13 kts 75°
2026-04-26 17:59 55.97764 37.42748 641 ft 11 kts 99°
2026-04-26 18:00 55.97727 37.42799 641 ft 0 kts 165°
2026-04-26 18:02 55.97705 37.42809 644 ft 14 kts 165°
2026-04-26 18:03 55.97602 37.42823 638 ft 10 kts 230°
2026-04-26 18:03 55.97593 37.42778 641 ft 0 kts 254°
2026-04-26 18:06 55.97540 37.42432 643 ft 65 kts 255°
2026-04-26 18:06 55.97370 37.41273 643 ft 124 kts 255°
2026-04-26 18:06 55.97126 37.39511 773 ft 160 kts 259°
2026-04-26 18:07 55.96774 37.37625 1362 ft 164 kts 245°
2026-04-26 18:07 55.96141 37.35850 1953 ft 177 kts 243°
2026-04-26 18:07 55.95386 37.33934 2187 ft 201 kts 242°
2026-04-26 18:07 55.94832 37.32527 2386 ft 217 kts 242°
2026-04-26 18:08 55.93633 37.29489 3337 ft 227 kts 241°
2026-04-26 18:08 55.92712 37.27158 4144 ft 232 kts 240°
2026-04-26 18:08 55.91774 37.24778 4886 ft 238 kts 239°
2026-04-26 18:08 55.90808 37.22321 5605 ft 246 kts 237°
2026-04-26 18:09 55.89489 37.20315 6245 ft 258 kts 201°
2026-04-26 18:09 55.87720 37.19999 6832 ft 265 kts 164°
2026-04-26 18:09 55.86042 37.21343 6950 ft 266 kts 142°
2026-04-26 18:09 55.84617 37.23394 6967 ft 261 kts 125°
2026-04-26 18:10 55.83911 37.26264 6965 ft 252 kts 94°
2026-04-26 18:10 55.84034 37.29370 7027 ft 261 kts 71°
2026-04-26 18:10 55.84961 37.32185 7769 ft 266 kts 54°
2026-04-26 18:10 55.86105 37.34749 8597 ft 272 kts 54°
2026-04-26 18:11 55.87327 37.37440 8903 ft 277 kts 54°
2026-04-26 18:11 55.88548 37.40106 8969 ft 278 kts 54°
2026-04-26 18:11 55.89754 37.42735 8969 ft 277 kts 54°
2026-04-26 18:11 55.90977 37.45398 8969 ft 277 kts 54°
2026-04-26 18:12 55.92212 37.48094 8969 ft 277 kts 55°
2026-04-26 18:12 55.93185 37.50965 8980 ft 272 kts 71°
2026-04-26 18:12 55.93620 37.54220 9054 ft 272 kts 89°
2026-04-26 18:12 55.93473 37.57572 9816 ft 271 kts 103°
2026-04-26 18:13 55.93110 37.60904 10553 ft 276 kts 104°
2026-04-26 18:13 55.92739 37.64297 11241 ft 282 kts 104°
2026-04-26 18:13 55.92358 37.67759 11892 ft 287 kts 105°
2026-04-26 18:13 55.92097 37.70131 12378 ft 291 kts 105°
2026-04-26 18:14 55.91411 37.74777 13310 ft 292 kts 117°
2026-04-26 18:14 55.90466 37.78006 13954 ft 293 kts 123°
2026-04-26 18:14 55.89469 37.81190 14317 ft 295 kts 124°
2026-04-26 18:14 55.88472 37.84385 14395 ft 295 kts 124°
2026-04-26 18:15 55.87475 37.87573 14392 ft 294 kts 124°
2026-04-26 18:15 55.86479 37.90753 14393 ft 294 kts 124°
2026-04-26 18:15 55.85484 37.93932 14395 ft 294 kts 124°
2026-04-26 18:15 55.84487 37.97115 14396 ft 294 kts 124°
2026-04-26 18:16 55.83488 38.00294 14394 ft 294 kts 124°
2026-04-26 18:16 55.81490 38.06657 14391 ft 294 kts 124°
2026-04-26 18:16 55.80507 38.09841 14391 ft 296 kts 120°
2026-04-26 18:17 55.79834 38.13337 14395 ft 302 kts 106°
2026-04-26 18:17 55.79676 38.17193 14464 ft 326 kts 92°
2026-04-26 18:17 55.79776 38.21292 14902 ft 336 kts 93°
2026-04-26 18:17 55.79869 38.25475 15311 ft 342 kts 94°
2026-04-26 18:18 55.79959 38.29716 15373 ft 343 kts 94°
2026-04-26 18:18 55.80048 38.33972 15381 ft 344 kts 94°
2026-04-26 18:18 55.80140 38.38222 15396 ft 346 kts 93°
2026-04-26 18:18 55.80514 38.42508 15932 ft 357 kts 81°
2026-04-26 18:19 55.81258 38.46773 16527 ft 364 kts 78°
2026-04-26 18:19 55.82032 38.51081 17098 ft 369 kts 79°
2026-04-26 18:19 55.82814 38.55459 17642 ft 374 kts 79°
2026-04-26 18:19 55.83602 38.59895 18135 ft 378 kts 79°
2026-04-26 18:20 55.84397 38.64377 18659 ft 382 kts 79°
2026-04-26 18:20 55.85200 38.68898 19185 ft 385 kts 79°
2026-04-26 18:20 55.86165 38.73423 19613 ft 398 kts 71°
2026-04-26 18:20 55.86950 38.76410 19700 ft 408 kts 71°
2026-04-26 18:21 55.88607 38.82636 20035 ft 422 kts 70°
2026-04-26 18:21 55.89881 38.87369 20483 ft 426 kts 70°
2026-04-26 18:21 55.91170 38.92155 20946 ft 429 kts 70°
2026-04-26 18:21 55.92457 38.96971 21389 ft 432 kts 70°
2026-04-26 18:22 55.93745 39.01824 21837 ft 436 kts 70°
2026-04-26 18:22 55.95042 39.06727 22289 ft 439 kts 70°
2026-04-26 18:22 55.96348 39.11685 22734 ft 442 kts 70°
2026-04-26 18:22 55.97658 39.16663 23129 ft 445 kts 70°
2026-04-26 18:23 55.98987 39.21694 23479 ft 449 kts 71°
2026-04-26 18:23 56.00322 39.26749 23777 ft 453 kts 71°
2026-04-26 18:23 56.01670 39.31865 24102 ft 456 kts 71°
2026-04-26 18:23 56.03026 39.37024 24447 ft 460 kts 71°
2026-04-26 18:24 56.04389 39.42216 24766 ft 463 kts 71°
2026-04-26 18:24 56.05762 39.47465 25058 ft 466 kts 71°
2026-04-26 18:24 56.07139 39.52741 25373 ft 470 kts 70°
2026-04-26 18:24 56.08754 39.57888 25685 ft 479 kts 62°
2026-04-26 18:25 56.10575 39.62912 25994 ft 482 kts 62°
2026-04-26 18:25 56.12399 39.67973 26324 ft 485 kts 62°
2026-04-26 18:25 56.14253 39.73150 26645 ft 488 kts 62°
2026-04-26 18:25 56.16088 39.78291 26957 ft 491 kts 62°
2026-04-26 18:26 56.17932 39.83465 27273 ft 494 kts 63°
2026-04-26 18:26 56.19790 39.88686 27586 ft 497 kts 63°
2026-04-26 18:26 56.21658 39.93946 27871 ft 500 kts 62°
2026-04-26 18:26 56.23533 39.99242 28130 ft 504 kts 62°
2026-04-26 18:27 56.25416 40.04573 28411 ft 507 kts 62°
2026-04-26 18:27 56.27312 40.09944 28702 ft 510 kts 62°
2026-04-26 18:27 56.29215 40.15349 28978 ft 512 kts 63°
2026-04-26 18:27 56.31129 40.20794 29254 ft 515 kts 63°
2026-04-26 18:28 56.33075 40.26329 29508 ft 518 kts 62°
2026-04-26 18:28 56.34999 40.31822 29754 ft 519 kts 62°
2026-04-26 18:28 56.36924 40.37334 30034 ft 519 kts 62°
2026-04-26 18:28 56.38847 40.42854 30275 ft 520 kts 61°
2026-04-26 18:29 56.40796 40.48465 30619 ft 519 kts 61°
2026-04-26 18:29 56.42685 40.53921 31066 ft 515 kts 61°
2026-04-26 18:29 56.44553 40.59387 31531 ft 510 kts 63°
2026-04-26 18:29 56.46095 40.65091 31981 ft 502 kts 72°
2026-04-26 18:30 56.47170 40.71036 32436 ft 494 kts 79°
2026-04-26 18:30 56.48063 40.77031 32867 ft 491 kts 78°
2026-04-26 18:30 56.48957 40.82987 33306 ft 488 kts 78°
2026-04-26 18:30 56.49847 40.88879 33659 ft 486 kts 77°
2026-04-26 18:31 56.50740 40.94784 33921 ft 484 kts 78°
2026-04-26 18:31 56.51624 41.00646 34177 ft 484 kts 78°
2026-04-26 18:31 56.52504 41.06543 34360 ft 484 kts 78°
2026-04-26 18:31 56.53375 41.12412 34418 ft 482 kts 78°
2026-04-26 18:32 56.55091 41.24111 34413 ft 479 kts 78°
2026-04-26 18:32 56.56789 41.35786 34422 ft 479 kts 78°
2026-04-26 18:33 56.58477 41.47477 34422 ft 479 kts 78°
2026-04-26 18:33 56.60163 41.59184 34426 ft 479 kts 78°
2026-04-26 18:34 56.61836 41.70884 34419 ft 479 kts 79°
2026-04-26 18:34 56.63497 41.82611 34418 ft 479 kts 79°
2026-04-26 18:35 56.65147 41.94354 34432 ft 479 kts 79°
2026-04-26 18:35 56.66780 42.06081 34414 ft 479 kts 79°
2026-04-26 18:36 56.68411 42.17849 34432 ft 479 kts 79°
2026-04-26 18:36 56.70036 42.29606 34431 ft 480 kts 79°
2026-04-26 18:37 56.71645 42.41418 34452 ft 481 kts 80°
2026-04-26 18:37 56.73233 42.53251 34455 ft 481 kts 80°
2026-04-26 18:38 56.74632 42.63084 34468 ft 483 kts 77°
2026-04-26 18:38 56.76588 42.74801 34471 ft 484 kts 76°
2026-04-26 18:39 56.78599 42.86507 34482 ft 484 kts 76°
2026-04-26 18:39 56.80531 42.98266 34481 ft 484 kts 77°
2026-04-26 18:40 56.82408 43.10066 34441 ft 484 kts 77°
2026-04-26 18:40 56.84273 43.21898 34467 ft 486 kts 77°
2026-04-26 18:41 56.86148 43.33771 34486 ft 486 kts 77°
2026-04-26 18:41 56.88017 43.45645 34494 ft 486 kts 77°
2026-04-26 18:42 56.89871 43.57549 34498 ft 486 kts 77°
2026-04-26 18:42 56.91710 43.69453 34509 ft 487 kts 78°
2026-04-26 18:43 56.93540 43.81372 34520 ft 486 kts 78°
2026-04-26 18:43 56.95358 43.93315 34524 ft 487 kts 78°
2026-04-26 18:44 56.97167 44.05265 34524 ft 487 kts 78°
2026-04-26 18:44 56.98970 44.17229 34525 ft 487 kts 78°
2026-04-26 18:45 57.00756 44.29209 34499 ft 487 kts 78°
2026-04-26 18:45 57.02534 44.41232 34508 ft 488 kts 78°
2026-04-26 18:46 57.04305 44.53263 34516 ft 488 kts 78°
2026-04-26 18:46 57.06062 44.65323 34545 ft 489 kts 78°
2026-04-26 18:47 57.07801 44.77404 34551 ft 489 kts 78°
2026-04-26 18:47 57.09533 44.89500 34560 ft 489 kts 78°
2026-04-26 18:48 57.11256 45.01604 34561 ft 489 kts 78°
2026-04-26 18:48 57.12976 45.13707 34567 ft 489 kts 78°
2026-04-26 18:49 57.14684 45.25831 34578 ft 489 kts 78°
2026-04-26 18:49 57.16364 45.37954 34586 ft 489 kts 78°
2026-04-26 18:50 57.18039 45.50094 34585 ft 488 kts 78°
2026-04-26 18:50 57.19708 45.62234 34587 ft 488 kts 78°
2026-04-26 18:51 57.21365 45.74379 34597 ft 488 kts 78°
2026-04-26 18:51 57.23005 45.86546 34596 ft 488 kts 79°
2026-04-26 18:52 57.24629 45.98724 34607 ft 489 kts 79°
2026-04-26 18:52 57.26243 46.10929 34609 ft 488 kts 79°
2026-04-26 18:53 57.27847 46.23115 34618 ft 488 kts 79°
2026-04-26 18:53 57.29449 46.35315 34620 ft 488 kts 79°
2026-04-26 18:54 57.31036 46.47555 34629 ft 488 kts 79°
2026-04-26 18:54 57.32591 46.59711 34628 ft 488 kts 79°
2026-04-26 18:55 57.34139 46.71933 34614 ft 488 kts 79°
2026-04-26 18:55 57.36416 46.83809 34619 ft 491 kts 66°
2026-04-26 18:56 57.39243 46.95344 34631 ft 492 kts 66°
2026-04-26 18:56 57.42053 47.06925 34636 ft 492 kts 67°
2026-04-26 18:57 57.44390 47.16624 34647 ft 493 kts 67°
2026-04-26 18:57 57.47666 47.30261 34651 ft 493 kts 67°
2026-04-26 18:58 57.50444 47.41920 34657 ft 494 kts 67°
2026-04-26 18:58 57.53221 47.53605 34663 ft 494 kts 67°
2026-04-26 18:59 57.55995 47.65318 34674 ft 494 kts 67°
2026-04-26 18:59 57.58758 47.77032 34675 ft 494 kts 67°
2026-04-26 19:00 57.61509 47.88771 34682 ft 494 kts 67°
2026-04-26 19:00 57.64247 48.00549 34692 ft 494 kts 67°
2026-04-26 19:01 57.66963 48.12305 34690 ft 494 kts 67°
2026-04-26 19:01 57.69683 48.24113 34695 ft 494 kts 67°
2026-04-26 19:02 57.72381 48.35907 34705 ft 494 kts 67°
2026-04-26 19:02 57.74497 48.45822 34708 ft 492 kts 75°
2026-04-26 19:03 57.75884 48.60484 34707 ft 490 kts 84°
2026-04-26 19:03 57.76788 48.73139 34689 ft 490 kts 84°
2026-04-26 19:04 57.77680 48.85792 34700 ft 491 kts 84°
2026-04-26 19:04 57.78565 48.98495 34709 ft 491 kts 85°
2026-04-26 19:05 57.79863 49.17560 34727 ft 492 kts 85°
2026-04-26 19:06 57.80704 49.30294 34731 ft 492 kts 85°
2026-04-26 19:06 57.81545 49.43017 34736 ft 492 kts 85°
2026-04-26 19:07 57.82371 49.55780 34737 ft 492 kts 85°
2026-04-26 19:07 57.83185 49.68548 34746 ft 493 kts 85°
2026-04-26 19:08 57.83983 49.81315 34744 ft 494 kts 85°
2026-04-26 19:08 57.84773 49.94134 34759 ft 495 kts 85°
2026-04-26 19:09 57.85551 50.06976 34763 ft 495 kts 85°
2026-04-26 19:09 57.86323 50.19807 34766 ft 494 kts 85°
2026-04-26 19:10 57.87078 50.32645 34771 ft 494 kts 85°
2026-04-26 19:10 57.87822 50.45491 34784 ft 495 kts 85°
2026-04-26 19:11 57.88550 50.58356 34782 ft 495 kts 85°
2026-04-26 19:11 57.89270 50.71225 34793 ft 495 kts 85°
2026-04-26 19:12 57.89978 50.84094 34796 ft 495 kts 86°
2026-04-26 19:12 57.90665 50.96981 34776 ft 496 kts 85°
2026-04-26 19:13 57.91348 51.09902 34789 ft 496 kts 86°
2026-04-26 19:13 57.92018 51.22797 34818 ft 496 kts 86°
2026-04-26 19:14 57.92555 51.33524 34819 ft 496 kts 86°
2026-04-26 19:14 57.93191 51.46441 34820 ft 496 kts 86°
2026-04-26 19:15 57.93837 51.59349 34831 ft 496 kts 86°
2026-04-26 19:15 57.94468 51.72272 34835 ft 495 kts 86°
2026-04-26 19:16 57.95082 51.85201 34840 ft 495 kts 86°
2026-04-26 19:16 57.95686 51.98123 34850 ft 495 kts 86°
2026-04-26 19:17 57.96265 52.11062 34823 ft 496 kts 86°
2026-04-26 19:17 57.96842 52.24006 34837 ft 496 kts 86°
2026-04-26 19:18 57.97404 52.36947 34844 ft 496 kts 86°
2026-04-26 19:18 57.97948 52.49884 34860 ft 496 kts 86°
2026-04-26 19:19 57.98487 52.62925 34868 ft 496 kts 86°
2026-04-26 19:19 57.99009 52.75881 34879 ft 495 kts 86°
2026-04-26 19:20 57.99522 52.88735 34879 ft 495 kts 86°
2026-04-26 19:20 58.00017 53.01683 34884 ft 495 kts 86°
2026-04-26 19:20 58.00260 53.08173 34671 ft 496 kts 87°
2026-04-26 19:21 58.00502 53.14661 34292 ft 497 kts 86°
2026-04-26 19:21 58.00745 53.21233 33069 ft 507 kts 86°
2026-04-26 19:21 58.00984 53.27849 32485 ft 503 kts 86°
2026-04-26 19:21 58.01213 53.34405 31833 ft 500 kts 86°
2026-04-26 19:22 58.01441 53.40948 31180 ft 498 kts 86°
2026-04-26 19:22 58.01667 53.47435 30533 ft 495 kts 86°
2026-04-26 19:22 58.01887 53.53890 29885 ft 493 kts 86°
2026-04-26 19:22 58.02102 53.60338 29200 ft 489 kts 86°
2026-04-26 19:23 58.02308 53.66705 28587 ft 484 kts 86°
2026-04-26 19:23 58.02507 53.73011 27959 ft 479 kts 86°
2026-04-26 19:23 58.02702 53.79238 27359 ft 475 kts 86°
2026-04-26 19:23 58.02895 53.85442 26766 ft 470 kts 86°
2026-04-26 19:24 58.03084 53.91591 26184 ft 466 kts 86°
2026-04-26 19:24 58.03266 53.97646 25687 ft 460 kts 86°
2026-04-26 19:24 58.03623 54.09554 24694 ft 448 kts 86°
2026-04-26 19:25 58.03800 54.15399 24213 ft 443 kts 86°
2026-04-26 19:25 58.03914 54.19216 23898 ft 439 kts 86°
2026-04-26 19:25 58.04139 54.26864 23216 ft 432 kts 86°
2026-04-26 19:25 58.04299 54.32493 22714 ft 426 kts 86°
2026-04-26 19:26 58.04453 54.38039 22262 ft 420 kts 86°
2026-04-26 19:26 58.04601 54.43507 21786 ft 415 kts 86°
2026-04-26 19:26 58.04744 54.48919 21319 ft 411 kts 86°
2026-04-26 19:26 58.04887 54.54281 20839 ft 407 kts 86°
2026-04-26 19:27 58.05028 54.59594 20359 ft 404 kts 86°
2026-04-26 19:27 58.05162 54.64867 19877 ft 401 kts 86°
2026-04-26 19:27 58.05294 54.70113 19399 ft 398 kts 86°
2026-04-26 19:27 58.05424 54.75307 18936 ft 396 kts 86°
2026-04-26 19:28 58.05753 54.80456 18456 ft 392 kts 76°
2026-04-26 19:28 58.06364 54.85447 17945 ft 390 kts 76°
2026-04-26 19:28 58.06967 54.90422 17472 ft 387 kts 76°
2026-04-26 19:28 58.07556 54.95349 17021 ft 383 kts 76°
2026-04-26 19:29 58.08134 55.00243 16563 ft 379 kts 76°
2026-04-26 19:29 58.08703 55.05091 16112 ft 376 kts 77°
2026-04-26 19:29 58.09266 55.09908 15671 ft 373 kts 77°
2026-04-26 19:29 58.09819 55.14673 15235 ft 370 kts 77°
2026-04-26 19:30 58.10371 55.19428 14792 ft 368 kts 77°
2026-04-26 19:30 58.10920 55.24127 14355 ft 365 kts 77°
2026-04-26 19:30 58.11463 55.28783 13922 ft 362 kts 77°
2026-04-26 19:30 58.11821 55.31866 13613 ft 361 kts 77°
2026-04-26 19:31 58.12534 55.38028 13024 ft 356 kts 77°
2026-04-26 19:31 58.13059 55.42585 12573 ft 353 kts 77°
2026-04-26 19:31 58.13576 55.47098 12140 ft 350 kts 77°
2026-04-26 19:31 58.14085 55.51565 11700 ft 347 kts 77°
2026-04-26 19:32 58.14589 55.56032 11264 ft 344 kts 77°
2026-04-26 19:32 58.15083 55.60437 10830 ft 341 kts 78°
2026-04-26 19:32 58.15313 55.64889 10382 ft 339 kts 91°
2026-04-26 19:32 58.15205 55.69315 10111 ft 332 kts 93°
2026-04-26 19:33 58.15087 55.73599 9979 ft 320 kts 93°
2026-04-26 19:33 58.14971 55.77740 9846 ft 310 kts 93°
2026-04-26 19:33 58.14859 55.81768 9511 ft 306 kts 93°
2026-04-26 19:33 58.14744 55.85784 9147 ft 303 kts 93°
2026-04-26 19:34 58.14627 55.89776 8726 ft 303 kts 94°
2026-04-26 19:34 58.14511 55.93761 8283 ft 303 kts 94°
2026-04-26 19:34 58.14395 55.97731 7894 ft 301 kts 94°
2026-04-26 19:34 58.14279 56.01638 7511 ft 292 kts 94°
2026-04-26 19:35 58.14164 56.05380 7154 ft 279 kts 94°
2026-04-26 19:35 58.14053 56.08978 6808 ft 268 kts 94°
2026-04-26 19:35 58.13947 56.12457 6482 ft 264 kts 94°
2026-04-26 19:35 58.13802 56.15895 6126 ft 259 kts 103°
2026-04-26 19:36 58.13191 56.18983 5812 ft 243 kts 124°
2026-04-26 19:36 58.12521 56.20671 5654 ft 236 kts 137°
2026-04-26 19:36 58.10970 56.23496 5268 ft 232 kts 139°
2026-04-26 19:36 58.09807 56.25599 5006 ft 231 kts 139°
2026-04-26 19:37 58.08644 56.27705 4684 ft 230 kts 138°
2026-04-26 19:37 58.07436 56.29573 4371 ft 219 kts 159°
2026-04-26 19:37 58.06004 56.29818 4095 ft 203 kts 200°
2026-04-26 19:37 58.04891 56.28377 3850 ft 192 kts 229°
2026-04-26 19:38 58.03987 56.26591 3739 ft 183 kts 226°
2026-04-26 19:38 58.03113 56.24903 3532 ft 177 kts 227°
2026-04-26 19:38 58.02269 56.23256 3293 ft 173 kts 227°
2026-04-26 19:38 58.01444 56.21642 3050 ft 169 kts 227°
2026-04-26 19:39 58.00636 56.20059 2831 ft 166 kts 227°
2026-04-26 19:39 57.99845 56.18511 2591 ft 162 kts 227°
2026-04-26 19:39 57.99085 56.17025 2390 ft 150 kts 227°
2026-04-26 19:39 57.98395 56.15677 2175 ft 139 kts 227°
2026-04-26 19:40 57.97735 56.14386 1969 ft 135 kts 227°
2026-04-26 19:40 57.97090 56.13126 1793 ft 133 kts 227°
2026-04-26 19:40 57.96458 56.11892 1617 ft 132 kts 226°
2026-04-26 19:40 57.95819 56.10646 1422 ft 132 kts 226°
2026-04-26 19:41 57.95176 56.09392 1227 ft 134 kts 225°
2026-04-26 19:41 57.94525 56.08123 1026 ft 135 kts 225°
2026-04-26 19:41 57.93867 56.06847 826 ft 136 kts 224°
2026-04-26 19:41 57.93645 56.06419 762 ft 136 kts 224°
2026-04-26 19:42 57.92552 56.04283 460 ft 136 kts 224°
2026-04-26 19:42 57.91919 56.03056 399 ft 117 kts 226°
2026-04-26 19:42 57.91476 56.02186 393 ft 67 kts 226°
2026-04-26 19:42 57.91273 56.01790 394 ft 24 kts 225°
2026-04-26 19:43 57.91247 56.01574 395 ft 18 kts 314°
2026-04-26 19:43 57.91315 56.01456 397 ft 11 kts 316°
2026-04-26 19:43 57.91367 56.01363 397 ft 10 kts 316°
2026-04-26 19:43 57.91412 56.01282 394 ft 8 kts 316°
2026-04-26 19:44 57.91439 56.01230 395 ft 4 kts 312°
2026-04-26 19:44 57.91459 56.01189 393 ft 4 kts 312°
2026-04-26 19:44 57.91476 56.01158 394 ft 3 kts 317°
2026-04-26 19:44 57.91489 56.01135 397 ft 2 kts 317°
2026-04-26 19:45 57.91491 56.01132 395 ft 0 kts 317°
2026-04-26 19:51 57.91491 56.01131 396 ft 0 kts 316°